| time (UTC) | temp F | wind direction | speed MPH | gust MPH | rain 1hr in | rain 24hr in | rain mn in | humidity % | barometer mb |
| 20260906120059 | 69 | 60 | 2.0 | 5.0 | 0.00 | 0.00 | 0.00 | 96 | 1015.6 |
| 20260906114533 | 70 | 21 | 3.0 | 8.0 | 0.00 | 0.00 | 0.00 | 96 | 1015.3 |
| 20260906113037 | 70 | 36 | 1.0 | 5.0 | 0.00 | 0.00 | 0.00 | 96 | 1015.1 |
| 20260906111525 | 71 | 17 | 1.0 | 6.0 | 0.00 | 0.00 | 0.00 | 97 | 1014.8 |
| 20260906110026 | 70 | 117 | 2.0 | 8.0 | 0.00 | 0.00 | 0.00 | 97 | 1014.8 |
| 20260906104524 | 70 | 86 | 1.0 | 8.0 | 0.00 | 0.00 | 0.00 | 97 | 1014.7 |
| 20260906103024 | 70 | 29 | 2.0 | 5.0 | 0.00 | 0.00 | 0.00 | 97 | 1014.7 |
| 20260906101523 | 70 | 355 | 2.0 | 5.0 | 0.00 | 0.00 | 0.00 | 97 | 1014.3 |
| 20260906100031 | 70 | 26 | 2.0 | 5.0 | 0.00 | 0.00 | 0.00 | 97 | 1014.3 |
| 20260906094521 | 70 | 59 | 2.0 | 4.0 | 0.00 | 0.00 | 0.00 | 96 | 1014.1 |
| 20260906093041 | 70 | 40 | 2.0 | 6.0 | 0.00 | 0.00 | 0.00 | 96 | 1014.1 |
| 20260906091520 | 70 | 28 | 1.0 | 5.0 | 0.00 | 0.00 | 0.00 | 96 | 1014.2 |
| 20260906090021 | 71 | 50 | 2.0 | 5.0 | 0.00 | 0.00 | 0.00 | 96 | 1014.4 |
| 20260906084520 | 71 | 93 | 1.0 | 6.0 | 0.00 | 0.00 | 0.00 | 95 | 1014.2 |
| 20260906083031 | 71 | 350 | 1.0 | 5.0 | 0.00 | 0.00 | 0.00 | 95 | 1014.4 |
| 20260906081519 | 70 | 61 | 2.0 | 6.0 | 0.00 | 0.00 | 0.00 | 95 | 1014.4 |
| 20260906080017 | 70 | 338 | 2.0 | 6.0 | 0.00 | 0.00 | 0.00 | 95 | 1014.4 |
| 20260906074532 | 70 | 51 | 1.0 | 7.0 | 0.00 | 0.00 | 0.00 | 96 | 1014.3 |
| 20260906073023 | 70 | 26 | 3.0 | 5.0 | 0.00 | 0.00 | 0.00 | 96 | 1014.3 |
| 20260906071515 | 70 | 38 | 5.0 | 10.0 | 0.00 | 0.00 | 0.00 | 96 | 1014.3 |
| 20260906070015 | 69 | 13 | 3.0 | 8.0 | 0.00 | 0.00 | 0.00 | 96 | 1014.5 |
| 20260906064515 | 69 | 29 | 1.0 | 6.0 | 0.00 | 0.00 | 0.00 | 96 | 1014.5 |
| 20260906063015 | 69 | 60 | 2.0 | 5.0 | 0.00 | 0.00 | 0.00 | 96 | 1014.6 |
| 20260906061513 | 69 | 32 | 3.0 | 6.0 | 0.00 | 0.00 | 0.00 | 96 | 1014.6 |
| 20260906060012 | 69 | 38 | 1.0 | 8.0 | 0.00 | 0.00 | 0.00 | 95 | 1014.7 |
| 20260906054511 | 69 | 68 | 3.0 | 8.0 | 0.00 | 0.00 | 0.00 | 95 | 1014.7 |
| 20260906053013 | 69 | 23 | 3.0 | 8.0 | 0.00 | 0.00 | 0.00 | 95 | 1014.4 |
| 20260906051506 | 70 | 24 | 1.0 | 6.0 | 0.00 | 0.00 | 0.00 | 95 | 1014.3 |
| 20260906050004 | 70 | 78 | 1.0 | 8.0 | 0.00 | 0.00 | 0.00 | 95 | 1014.1 |
| 20260906044620 | 71 | 77 | 2.0 | 8.0 | 0.00 | 0.00 | 0.00 | 94 | 1014.0 |
| 20260906043101 | 71 | 78 | 2.0 | 9.0 | 0.00 | 0.00 | 0.00 | 94 | 1013.7 |
| 20260906041558 | 72 | 62 | 3.0 | 8.0 | 0.00 | 0.00 | 0.00 | 93 | 1013.6 |
| 20260906040054 | 72 | 34 | 3.0 | 10.0 | 0.00 | 0.00 | 0.00 | 93 | 1013.5 |
| 20260906034552 | 73 | 115 | 1.0 | 9.0 | 0.00 | 0.00 | 0.00 | 93 | 1013.3 |
| 20260906033051 | 73 | 82 | 2.0 | 9.0 | 0.00 | 0.00 | 0.00 | 92 | 1013.3 |
| 20260906031550 | 74 | 69 | 2.0 | 8.0 | 0.00 | 0.00 | 0.00 | 92 | 1013.3 |
| 20260906030052 | 74 | 85 | 2.0 | 6.0 | 0.00 | 0.00 | 0.00 | 90 | 1013.4 |
| 20260906024607 | 75 | 24 | 2.0 | 9.0 | 0.00 | 0.00 | 0.00 | 89 | 1013.1 |
| 20260906023054 | 76 | 113 | 4.0 | 11.0 | 0.00 | 0.00 | 0.00 | 89 | 1013.0 |
| 20260906021546 | 77 | 79 | 3.0 | 8.0 | 0.00 | 0.00 | 0.00 | 89 | 1013.0 |
| 20260906020044 | 77 | 69 | 3.0 | 12.0 | 0.00 | 0.00 | 0.00 | 88 | 1012.7 |
| 20260906014550 | 78 | 34 | 3.0 | 10.0 | 0.00 | 0.00 | 0.00 | 87 | 1012.5 |
| 20260906013042 | 79 | 34 | 4.0 | 11.0 | 0.00 | 0.00 | 0.00 | 86 | 1012.3 |
| 20260906011554 | 80 | 63 | 3.0 | 10.0 | 0.00 | 0.00 | 0.00 | 85 | 1012.1 |
| 20260906010100 | 81 | 46 | 5.0 | 14.0 | 0.00 | 0.00 | 0.00 | 84 | 1011.9 |
| 20260906004546 | 82 | 355 | 3.0 | 9.0 | 0.00 | 0.00 | 0.00 | 84 | 1011.7 |
| 20260906003044 | 83 | 5 | 4.0 | 8.0 | 0.00 | 0.00 | 0.00 | 82 | 1011.4 |
| 20260906001558 | 84 | 355 | 6.0 | 11.0 | 0.00 | 0.00 | 0.00 | 80 | 1011.4 |
| 20260906000039 | 84 | 350 | 4.0 | 9.0 | 0.00 | 0.00 | 0.00 | 79 | 1011.4 |
| 20260905234539 | 85 | 5 | 3.0 | 4.0 | 0.00 | 0.00 | 0.00 | 79 | 1011.3 |
| 20260905233039 | 87 | 28 | 2.0 | 5.0 | 0.00 | 0.00 | 0.00 | 76 | 1011.3 |
| 20260905231543 | 87 | 19 | 3.0 | 9.0 | 0.00 | 0.00 | 0.00 | 75 | 1011.1 |
| 20260905230039 | 88 | 5 | 3.0 | 8.0 | 0.00 | 0.00 | 0.00 | 74 | 1011.0 |
| 20260905224544 | 89 | 5 | 2.0 | 9.0 | 0.00 | 0.00 | 0.00 | 74 | 1011.0 |
| 20260905223041 | 89 | 5 | 3.0 | 10.0 | 0.00 | 0.00 | 0.00 | 73 | 1011.0 |
| 20260905221541 | 90 | 40 | 3.0 | 8.0 | 0.00 | 0.00 | 0.00 | 72 | 1011.0 |
| 20260905220036 | 90 | 336 | 4.0 | 8.0 | 0.00 | 0.00 | 0.00 | 73 | 1011.0 |
| 20260905214535 | 90 | 22 | 2.0 | 6.0 | 0.00 | 0.00 | 0.00 | 72 | 1010.9 |
| 20260905213040 | 90 | 51 | 1.0 | 9.0 | 0.00 | 0.00 | 0.00 | 72 | 1010.9 |
| 20260905211542 | 90 | 346 | 2.0 | 5.0 | 0.00 | 0.00 | 0.00 | 72 | 1010.9 |
| 20260905210035 | 90 | 9 | 2.0 | 8.0 | 0.00 | 0.00 | 0.00 | 70 | 1011.1 |
| 20260905204532 | 90 | 15 | 3.0 | 8.0 | 0.00 | 0.00 | 0.00 | 71 | 1011.2 |
| 20260905203045 | 90 | 48 | 4.0 | 9.0 | 0.00 | 0.00 | 0.00 | 71 | 1011.1 |
| 20260905201549 | 91 | 38 | 3.0 | 12.0 | 0.00 | 0.00 | 0.00 | 71 | 1011.1 |
| 20260905200030 | 91 | 9 | 3.0 | 11.0 | 0.00 | 0.00 | 0.00 | 67 | 1011.2 |
| 20260905194528 | 91 | 25 | 2.0 | 8.0 | 0.00 | 0.00 | 0.00 | 70 | 1011.3 |
| 20260905193032 | 92 | 328 | 4.0 | 10.0 | 0.00 | 0.00 | 0.00 | 66 | 1011.2 |
| 20260905191527 | 91 | 318 | 4.0 | 11.0 | 0.00 | 0.00 | 0.00 | 68 | 1011.5 |
| 20260905190021 | 92 | 329 | 4.0 | 10.0 | 0.00 | 0.00 | 0.00 | 67 | 1011.6 |
| 20260905184518 | 91 | 325 | 4.0 | 6.0 | 0.00 | 0.00 | 0.00 | 66 | 1011.8 |
| 20260905183019 | 91 | 335 | 2.0 | 6.0 | 0.00 | 0.00 | 0.00 | 68 | 1011.9 |
| 20260905181517 | 91 | 50 | 3.0 | 11.0 | 0.00 | 0.00 | 0.00 | 69 | 1012.0 |
| 20260905180016 | 91 | 16 | 4.0 | 10.0 | 0.00 | 0.00 | 0.00 | 68 | 1012.1 |
| 20260905174515 | 91 | 303 | 3.0 | 10.0 | 0.00 | 0.00 | 0.00 | 70 | 1012.0 |
| 20260905173011 | 90 | 338 | 3.0 | 10.0 | 0.00 | 0.00 | 0.00 | 70 | 1012.1 |
| 20260905171508 | 90 | 279 | 4.0 | 11.0 | 0.00 | 0.00 | 0.00 | 69 | 1012.2 |
| 20260905170009 | 90 | 315 | 2.0 | 10.0 | 0.00 | 0.00 | 0.00 | 71 | 1012.4 |
| 20260905164504 | 89 | 355 | 2.0 | 11.0 | 0.00 | 0.00 | 0.00 | 72 | 1012.5 |
| 20260905163003 | 89 | 325 | 4.0 | 11.0 | 0.00 | 0.00 | 0.00 | 71 | 1012.5 |
| 20260905161558 | 89 | 355 | 3.0 | 8.0 | 0.00 | 0.00 | 0.00 | 74 | 1012.5 |
| 20260905160056 | 89 | 281 | 3.0 | 9.0 | 0.00 | 0.00 | 0.00 | 74 | 1012.5 |
| 20260905154552 | 88 | 344 | 2.0 | 6.0 | 0.00 | 0.00 | 0.00 | 75 | 1012.4 |
| 20260905153047 | 87 | 326 | 2.0 | 6.0 | 0.00 | 0.00 | 0.00 | 75 | 1012.5 |
| 20260905151548 | 87 | 292 | 1.0 | 5.0 | 0.00 | 0.00 | 0.00 | 79 | 1012.5 |
| 20260905150043 | 86 | 300 | 2.0 | 6.0 | 0.00 | 0.00 | 0.00 | 79 | 1012.3 |
| 20260905144539 | 85 | 302 | 1.0 | 6.0 | 0.00 | 0.00 | 0.00 | 79 | 1012.2 |
| 20260905143035 | 84 | 289 | 1.0 | 4.0 | 0.00 | 0.00 | 0.00 | 82 | 1012.2 |
| 20260905141530 | 83 | 240 | 1.0 | 4.0 | 0.00 | 0.00 | 0.00 | 83 | 1012.2 |
| 20260905140026 | 82 | 254 | 1.0 | 4.0 | 0.00 | 0.00 | 0.00 | 86 | 1012.3 |
| 20260905134528 | 81 | 325 | 0.0 | 3.0 | 0.00 | 0.00 | 0.00 | 86 | 1012.5 |
| 20260905133018 | 80 | 271 | 0.0 | 2.0 | 0.00 | 0.00 | 0.00 | 88 | 1012.2 |
| 20260905131516 | 78 | 273 | 0.0 | 3.0 | 0.00 | 0.00 | 0.00 | 93 | 1012.3 |
| 20260905130010 | 77 | 178 | 0.0 | 2.0 | 0.00 | 0.00 | 0.00 | 96 | 1012.2 |
| 20260905124513 | 75 | 177 | 0.0 | 1.0 | 0.00 | 0.00 | 0.00 | 97 | 1012.1 |
| 20260905123001 | 74 | 177 | 0.0 | 3.0 | 0.00 | 0.00 | 0.00 | 97 | 1012.1 |
| 20260905121557 | 74 | 202 | 2.0 | 7.0 | 0.00 | 0.00 | 0.00 | 97 | 1011.9 |